| time (UTC) | temp F | wind direction | speed knots | gust knots | rain 1hr in | rain 24hr in | rain mn in | humidity % | barometer mb |
| 20260505184547 | 80 | 153 | 1.7 | 9.6 | 0.00 | 0.00 | 0.00 | 47 | 1017.8 |
| 20260505183054 | 81 | 197 | 5.2 | 10.4 | 0.00 | 0.00 | 0.00 | 47 | 1018.3 |
| 20260505181555 | 82 | 252 | 4.3 | 7.8 | 0.00 | 0.00 | 0.00 | 46 | 1018.4 |
| 20260505180057 | 80 | 261 | 1.7 | 6.1 | 0.00 | 0.00 | 0.00 | 47 | 1018.3 |
| 20260505174547 | 81 | 265 | 1.7 | 12.2 | 0.00 | 0.00 | 0.00 | 45 | 1018.2 |
| 20260505173059 | 80 | 167 | 4.3 | 11.3 | 0.00 | 0.00 | 0.00 | 44 | 1018.2 |
| 20260505171618 | 79 | 209 | 3.5 | 8.7 | 0.00 | 0.00 | 0.00 | 47 | 1018.2 |
| 20260505170053 | 79 | 173 | 2.6 | 8.7 | 0.00 | 0.00 | 0.00 | 46 | 1018.3 |
| 20260505164546 | 79 | 172 | 4.3 | 10.4 | 0.00 | 0.00 | 0.00 | 45 | 1018.6 |
| 20260505163045 | 78 | 214 | 2.6 | 7.0 | 0.00 | 0.00 | 0.00 | 51 | 1018.9 |
| 20260505161553 | 78 | 208 | 2.6 | 7.8 | 0.00 | 0.00 | 0.00 | 53 | 1018.8 |
| 20260505153051 | 75 | 245 | 2.6 | 7.0 | 0.00 | 0.00 | 0.00 | 59 | 1019.4 |
| 20260505151553 | 75 | 257 | 1.7 | 8.7 | 0.00 | 0.00 | 0.00 | 61 | 1019.5 |
| 20260505150110 | 75 | 208 | 4.3 | 8.7 | 0.00 | 0.00 | 0.00 | 63 | 1019.5 |
| 20260505124557 | 62 | 189 | 1.7 | 6.1 | 0.00 | 0.00 | 0.00 | 82 | 1019.2 |
| 20260505123100 | 61 | 199 | 0.9 | 3.5 | 0.00 | 0.00 | 0.00 | 87 | 1019.0 |
| 20260505121619 | 59 | 265 | 0.0 | 1.7 | 0.00 | 0.00 | 0.00 | 92 | 1018.9 |
| 20260505120047 | 56 | 0 | 0.0 | 0.0 | 0.00 | 0.00 | 0.00 | 97 | 1018.7 |
| 20260505114551 | 54 | 0 | 0.0 | 0.0 | 0.00 | 0.00 | 0.00 | 97 | 1018.8 |
| 20260505113048 | 51 | 0 | 0.0 | 0.0 | 0.00 | 0.00 | 0.00 | 96 | 1018.7 |
| 20260505111548 | 49 | 0 | 0.0 | 0.0 | 0.00 | 0.00 | 0.00 | 96 | 1018.6 |
| 20260505101546 | 48 | 0 | 0.0 | 0.0 | 0.00 | 0.00 | 0.00 | 96 | 1018.2 |
| 20260505100123 | 48 | 0 | 0.0 | 0.0 | 0.00 | 0.00 | 0.00 | 95 | 1018.1 |
| 20260505094550 | 49 | 0 | 0.0 | 0.0 | 0.00 | 0.00 | 0.00 | 95 | 1018.1 |
| 20260505093052 | 49 | 0 | 0.0 | 0.0 | 0.00 | 0.00 | 0.00 | 95 | 1018.1 |
| 20260505091616 | 49 | 0 | 0.0 | 0.0 | 0.00 | 0.00 | 0.00 | 95 | 1018.1 |
| 20260505090100 | 49 | 0 | 0.0 | 0.0 | 0.00 | 0.00 | 0.00 | 95 | 1017.9 |
| 20260505084549 | 49 | 0 | 0.0 | 0.0 | 0.00 | 0.00 | 0.00 | 95 | 1017.7 |
| 20260505083054 | 50 | 0 | 0.0 | 0.0 | 0.00 | 0.00 | 0.00 | 95 | 1017.7 |
| 20260505081550 | 50 | 0 | 0.0 | 0.0 | 0.00 | 0.00 | 0.00 | 94 | 1017.7 |
| 20260505080055 | 50 | 0 | 0.0 | 0.0 | 0.00 | 0.00 | 0.00 | 94 | 1017.6 |
| 20260505074549 | 50 | 0 | 0.0 | 0.0 | 0.00 | 0.00 | 0.00 | 94 | 1017.6 |
| 20260505073057 | 50 | 0 | 0.0 | 0.0 | 0.00 | 0.00 | 0.00 | 93 | 1017.5 |
| 20260505071549 | 51 | 0 | 0.0 | 0.0 | 0.00 | 0.00 | 0.00 | 93 | 1017.6 |
| 20260505070059 | 51 | 0 | 0.0 | 0.0 | 0.00 | 0.00 | 0.00 | 92 | 1017.5 |
| 20260505064555 | 51 | 0 | 0.0 | 0.0 | 0.00 | 0.00 | 0.00 | 91 | 1017.6 |
| 20260505063052 | 52 | 0 | 0.0 | 0.0 | 0.00 | 0.00 | 0.00 | 90 | 1017.7 |
| 20260505061554 | 53 | 0 | 0.0 | 0.0 | 0.00 | 0.00 | 0.00 | 88 | 1017.7 |
| 20260505060052 | 53 | 0 | 0.0 | 0.0 | 0.00 | 0.00 | 0.00 | 87 | 1017.9 |
| 20260505054617 | 54 | 0 | 0.0 | 0.0 | 0.00 | 0.00 | 0.00 | 86 | 1018.0 |
| 20260505053056 | 55 | 0 | 0.0 | 0.0 | 0.00 | 0.00 | 0.00 | 84 | 1018.0 |
| 20260505051547 | 55 | 0 | 0.0 | 0.0 | 0.00 | 0.00 | 0.00 | 81 | 1018.1 |
| 20260505041600 | 59 | 0 | 0.0 | 0.0 | 0.00 | 0.00 | 0.00 | 73 | 1018.5 |
| 20260505034551 | 60 | 0 | 0.0 | 0.0 | 0.00 | 0.00 | 0.00 | 71 | 1018.6 |
| 20260505033053 | 61 | 0 | 0.0 | 0.9 | 0.00 | 0.00 | 0.00 | 70 | 1018.7 |
| 20260505031550 | 61 | 0 | 0.0 | 0.9 | 0.00 | 0.00 | 0.00 | 69 | 1018.8 |
| 20260505030101 | 62 | 154 | 0.0 | 2.6 | 0.00 | 0.00 | 0.00 | 68 | 1018.7 |
| 20260505024556 | 62 | 153 | 0.9 | 4.3 | 0.00 | 0.00 | 0.00 | 66 | 1018.5 |
| 20260505023053 | 63 | 158 | 0.0 | 3.5 | 0.00 | 0.00 | 0.00 | 65 | 1018.5 |
| 20260505021558 | 64 | 154 | 1.7 | 4.3 | 0.00 | 0.00 | 0.00 | 65 | 1018.4 |
| 20260505020058 | 65 | 0 | 0.9 | 4.3 | 0.00 | 0.00 | 0.00 | 63 | 1018.3 |
| 20260505014556 | 65 | 166 | 2.6 | 5.2 | 0.00 | 0.00 | 0.00 | 63 | 1018.1 |
| 20260505013050 | 66 | 172 | 1.7 | 5.2 | 0.00 | 0.00 | 0.00 | 62 | 1017.9 |
| 20260505011551 | 67 | 0 | 2.6 | 8.7 | 0.00 | 0.00 | 0.00 | 61 | 1017.7 |
| 20260505010114 | 67 | 195 | 1.7 | 6.1 | 0.00 | 0.00 | 0.00 | 60 | 1017.6 |
| 20260505004552 | 68 | 158 | 0.9 | 5.2 | 0.00 | 0.00 | 0.00 | 59 | 1017.4 |
| 20260505003055 | 69 | 157 | 4.3 | 7.8 | 0.00 | 0.00 | 0.00 | 58 | 1017.2 |
| 20260505001550 | 69 | 169 | 2.6 | 7.0 | 0.00 | 0.00 | 0.00 | 58 | 1017.1 |
| 20260505000058 | 67 | 116 | 0.0 | 2.6 | 0.00 | 0.00 | 0.00 | 64 | 1016.8 |
| 20260504234551 | 68 | 0 | 0.0 | 0.0 | 0.00 | 0.00 | 0.00 | 60 | 1016.7 |
| 20260504233054 | 71 | 0 | 0.0 | 0.9 | 0.00 | 0.00 | 0.00 | 58 | 1016.5 |
| 20260504231546 | 74 | 0 | 0.0 | 2.6 | 0.00 | 0.00 | 0.00 | 49 | 1016.5 |
| 20260504230107 | 76 | 188 | 0.0 | 4.3 | 0.00 | 0.00 | 0.00 | 43 | 1016.6 |
| 20260504224601 | 75 | 205 | 0.9 | 3.5 | 0.00 | 0.00 | 0.00 | 43 | 1016.5 |
| 20260504223047 | 75 | 191 | 1.7 | 7.8 | 0.00 | 0.00 | 0.00 | 39 | 1016.7 |
| 20260504221549 | 77 | 213 | 2.6 | 8.7 | 0.00 | 0.00 | 0.00 | 37 | 1016.7 |
| 20260504220057 | 78 | 223 | 4.3 | 9.6 | 0.00 | 0.00 | 0.00 | 35 | 1016.5 |
| 20260504214548 | 78 | 205 | 3.5 | 7.0 | 0.00 | 0.00 | 0.00 | 35 | 1016.5 |
| 20260504213048 | 78 | 155 | 3.5 | 8.7 | 0.00 | 0.00 | 0.00 | 34 | 1016.5 |
| 20260504211546 | 78 | 197 | 5.2 | 10.4 | 0.00 | 0.00 | 0.00 | 33 | 1016.5 |
| 20260504210100 | 79 | 173 | 5.2 | 12.2 | 0.00 | 0.00 | 0.00 | 35 | 1016.7 |
| 20260504204550 | 79 | 201 | 3.5 | 8.7 | 0.00 | 0.00 | 0.00 | 34 | 1016.7 |
| 20260504203051 | 79 | 236 | 2.6 | 7.8 | 0.00 | 0.00 | 0.00 | 36 | 1016.8 |
| 20260504201551 | 79 | 193 | 2.6 | 10.4 | 0.00 | 0.00 | 0.00 | 36 | 1016.8 |
| 20260504200101 | 79 | 221 | 3.5 | 8.7 | 0.00 | 0.00 | 0.00 | 35 | 1017.0 |
| 20260504194554 | 79 | 217 | 1.7 | 8.7 | 0.00 | 0.00 | 0.00 | 34 | 1017.2 |
| 20260504193055 | 79 | 214 | 3.5 | 7.8 | 0.00 | 0.00 | 0.00 | 36 | 1017.3 |
| 20260504191605 | 79 | 220 | 3.5 | 8.7 | 0.00 | 0.00 | 0.00 | 34 | 1017.4 |
| 20260504190055 | 78 | 190 | 1.7 | 7.0 | 0.00 | 0.00 | 0.00 | 37 | 1017.7 |